www.pogodaiklimat.ru

Погода и климат >> Архив погоды >> Россия >> Дагестан >> Махачкала


АРХИВ ПОГОДЫ в Махачкале

Время (UTC), дата Ветер
(напр.,м/с)
 
Видим.   Явления Облачность Т
(С)
Тd
(С)
f
(%)
Тe
(С)
Тes
(С)
Комфортность P
(гПа)
Po
(гПа)
Тmin
(С)
Tmax
(С)
R
(мм)
R24
(мм)
S
(см)
03 14.05 З 1 20 км ясно +15.6 +9.3 66 +16 +18 тепло 1013.7 1015.8 +11.7
06 14.05 З 2 20 км ясно +22.4 +9.9 45 +24 +36 комфорт 1014.0 1016.1
09 14.05 ЮВ 3 10 км ясно +20.8 +14.0 65 +24 +39 комфорт 1014.1 1016.2
12 14.05 В 3 20 км ясно +21.9 +13.1 57 +25 +33 комфорт 1013.8 1015.9
15 14.05 ЮВ 1 10 км ясно +20.1 +13.5 66 +23 +24 комфорт 1013.6 1015.7 +23.3
18 14.05 ЮВ 2 10 км ясно +18.6 +12.9 69 +20 +20 тепло 1015.8 1017.9
21 14.05 З 2 10 км ясно +13.9 +11.1 83 +13 +13 по сезону 1015.6 1017.8
00 15.05 З 2 10 км ясно +13.3 +11.6 89 +13 +13 по сезону 1016.1 1018.3
03 15.05 З 2 20 км ясно +14.8 +10.3 74 +15 +16 по сезону 1017.2 1019.3 +12.8
06 15.05 СЗ 3 н/о н/о +24.1 +13.3 51 +26 +26 жарко 1018.2 1020.3
09 15.05 В 2 10 км ясно +22.4 +14.4 61 +26 +45 жарко 1018.0 1020.1
12 15.05 ЮВ 2 10 км ясно +23.3 +11.8 48 +26 +37 жарко 1017.7 1019.8
15 15.05 В 1 10 км н/о +20.1 +15.7 76 +24 +24 комфорт 1018.0 1020.2 +25.7
18 15.05 ЮВ 1 10 км ясно +17.4 +8.7 57 +18 +18 тепло 1019.4 1021.5
21 15.05 З 2 10 км ясно +13.6 +7.6 67 +13 +13 по сезону 1018.6 1020.8
00 16.05 СЗ 1 10 км ясно +10.9 +6.7 75 +11 +11 по сезону 1018.1 1020.3
03 16.05 З 3 10 км ясно +14.4 +7.5 63 +14 +15 по сезону 1009.7 1021.9 +10.4
06 16.05 СЗ 1 20 км ясно +22.9 +3.9 29 +23 +37 комфорт 1020.1 1022.2
09 16.05 В 3 20 км ясно +23.1 +7.7 37 +24 +40 комфорт 1020.2 1022.3
12 16.05 В 2 20 км ясно +22.6 +8.9 42 +24 +35 комфорт 1019.5 1021.6
15 16.05 В 3 20 км ясно +20.6 +7.3 42 +22 +23 комфорт 1018.8 1020.9 +24.3
18 16.05 В 2 20 км ясно +18.4 +11.1 62 +19 +19 тепло 1019.3 1021.4
21 16.05 З 1 20 км ясно +10.5 +6.9 78 +10 +10 прохладно 1018.2 1020.4
00 17.05 СЗ 1 20 км ясно +9.3 +3.8 68 +9 +9 прохладно 1017.9 1020.2
03 17.05 З 1 20 км ясно +13.1 +5.1 58 +13 +15 по сезону 1018.9 1021.1 +8.2
06 17.05 В 1 20 км ясно +20.6 +12.7 61 +24 +38 комфорт 1019.7 1021.8
09 17.05 В 3 20 км 3/1 1000 м
[Cu hum Ci fib]
+21.9 +11.7 52 +24 +38 комфорт 1019.6 1021.8
12 17.05 В 4 20 км 3/0
[Ac trans Ci fib]
+21.3 +13.9 63 +24 +31 комфорт 1018.7 1020.8
15 17.05 В 3 20 км 8/0
[Ac trans Ci fib]
+20.5 +13.6 65 +23 +24 комфорт 1018.1 1020.2 +22.2
18 17.05 ЮВ 4 20 км 4/0
[Ac trans Ci fib]
+19.5 +9.6 53 +21 +21 комфорт 1017.9 1020.0
21 17.05 ЮВ 3 10 км ясно +17.8 +10.6 63 +18 +18 тепло 1017.3 1019.4
00 18.05 З 1 20 км ясно +11.2 +6.0 70 +11 +11 по сезону 1017.1 1019.3
03 18.05 ЮВ 2 20 км ясно +17.5 +9.5 59 +18 +20 тепло 1016.9 1019.0 +10.2
06 18.05 ЮВ 2 10 км ясно +22.3 +13.9 59 +25 +38 комфорт 1016.8 1018.9
09 18.05 В 4 20 км ясно +22.4 +12.9 55 +25 +38 комфорт 1016.1 1018.2
12 18.05 В 6 20 км ясно +20.3 +15.3 73 +23 +27 комфорт 1015.6 1017.8
15 18.05 В 3 20 км ясно +19.0 +15.8 82 +21 +21 комфорт 1014.4 1016.5 +22.6
18 18.05 ЮВ 2 20 км ясно +18.0 +16.3 90 +19 +19 тепло 1014.6 1016.7
21 18.05 З 2 500 м туман ?/? +15.4 +14.1 92 +15 +15 по сезону 1014.8 1017.0
00 19.05 З 1 4000 м в посл. час туман ясно +13.9 +12.8 93 +14 +14 по сезону 1013.9 1016.1
03 19.05 З 1 10 км ясно +14.9 +13.8 93 +15 +17 по сезону 1014.8 1017.0 +12.7
06 19.05 В 2 10 км 4/0
[Ci fib]
+18.9 +15.5 81 +21 +32 комфорт 1015.6 1017.7
09 19.05 В 3 10 км 4/0
[Ac As Ci fib]
+21.5 +15.9 70 +25 +38 комфорт 1015.4 1017.5
12 19.05 В 2 10 км 5/0
[Ci fib]
+24.2 +14.8 56 +27 +37 жарко 1014.5 1016.6
15 19.05 В 3 н/о н/о +20.5 +16.8 79 +24 +24 комфорт 1014.0 1016.1 +25.4
18 19.05 ЮВ 2 10 км 8/0
[Ac As Ci fib]
+18.9 +16.9 88 +21 +21 комфорт 1014.8 1016.9
21 19.05 ЮВ 2 н/о н/о +17.9 +16.2 90 +18 +18 тепло 1013.8 1015.9
00 20.05 ЮВ 1 10 км 6/0
[Ci fib]
+17.7 +16.1 90 +19 +19 тепло 1012.9 1015.0
03 20.05 З 1 10 км 6/0
[Ci fib]
+16.5 +12.9 79 +17 +19 по сезону 1013.2 1015.3 +14.2
06 20.05 СВ 2 10 км 10/6 600 м
[Sc Ac As]
+19.9 +16.4 80 +23 +24 комфорт 1013.3 1015.4
09 20.05 ЮВ 3 10 км 8/4 600 м
[Sc Ac cast Ci fib]
+22.3 +17.3 73 +27 +33 душно 1012.9 1014.9
12 20.05 В 3 10 км 9/0
[Ac cast Ci fib]
+22.2 +16.9 72 +27 +31 душно 1012.5 1014.6
15 20.05 В 1 10 км 9/4 600 м
[Sc Ac cast Ci fib]
+21.1 +16.5 75 +25 +25 комфорт 1012.0 1014.1 +23.2
18 20.05 В 1 10 км 9/4 600 м
[Sc Ac cast Ci fib]
+19.7 +17.3 86 +23 +23 комфорт 1012.1 1014.2
21 20.05 З 2 10 км 9/6 600 м
[Sc Ac cast Ci fib]
+18.4 +15.7 84 +20 +20 тепло 1011.3 1013.4
00 21.05 В 2 10 км 8/3 600 м
[Sc Ac cast Ci fib]
+19.4 +16.6 84 +22 +22 комфорт 1011.1 1013.3

 

Местоположение метеостанции Махачкала (Дагестан, Россия): широта 43.02 долгота 47.48 высота над уровнем моря -19 м.

В архиве по умолчанию представлена погода в Махачкале за последнюю неделю. Архивные данные за месяц целиком и за предыдущие месяцы, начиная с января 2011 года, Вы можете получить, выбрав интересующий диапазон дат из раскрывающегося списка и нажав кнопку "Ввод!".


*Определитесь, кто Вы:
робот инопланетянин человек

Внимание! Время в таблицах - всемирное. Для получения местного времени необходимо прибавить поправку, которая в Махачкале равна 3 ч.

Смотрите также архив погоды в соседних городах и на ближайших метеорологических станциях:

Погода в Буйнакске (Дагестан, Россия) (37 км)
Погода в Сергокале (Дагестан, Россия) (65 км)
Погода в Изберге (Дагестан, Россия) (65 км)
Погода в Куппе (Дагестан, Россия) (73 км)
Погода в Хасавюрте (Дагестан, Россия) (77 км)
Погода в Гунибе (Дагестан, Россия) (81 км)
Погода в Хунзахе (Дагестан, Россия) (81 км)
Погода в Бабаюрте (Дагестан, Россия) (86 км)
Погода в Кумухе (Дагестан, Россия) (104 км)
Погода в Шелковской (Чечня, Россия) (106 км)

Пояснения к столбцам:

Ветер - указаны скорость ветра в м/с - средняя за 10 мин, порывы в срок и между сроками (в фигурных скобках) и направление, откуда дует ветер: С - северный, СВ - северо-восточный, В - восточный, ЮВ - юго-восточный, Ю - южный, ЮЗ - юго-западный, З - западный, СЗ - северо-западный.
Видимость - горизонтальная дальность видимости в метрах или километрах. При видимости от 1 до 10 км при отсутствии осадков обычно наблюдается дымка, при ухудшении видимости до 1 км и менее - туман. В сухую погоду видимость может ухудшаться дымом, пылью или мглою.
Явления - указаны атмосферные явления, наблюдавшиеся в срок или в последний час перед сроком; фигурными скобками обозначены явления, наблюдавшиеся между сроками (за 1-3 часа до срока); квадратными скобками обозначены град или гололедные отложения с указанием их диаметра в мм.
Облачность - указаны через наклонную черту общая и нижняя облачность в баллах и высота нижней границы облаков в метрах; квадратными скобками обозначены формы облаков: Ci - перистые, Cs - перисто-слоистые, Cc - перисто-кучевые, Ac - высококучевые, As - высокослоистые, Sc - слоисто-кучевые, Ns - слоисто-дождевые, Cu - кучевые, Cb - кучево-дождевые. Подробнее классификацию облаков см. в Атласе облаков (PDF).
T - Температура воздуха - температура, измеренная на высоте 2 м над землей.
Td - Температура точки росы - температура, при понижении до которой содержащийся в воздухе водяной пар достигнет насыщения.
f - Относительная влажность воздуха - влажноcть воздуха, измеренная на высоте 2 м над землей.
Te - Эффективная температура - температура, которую ощущает одетый по сезону человек в тени. Характеристика душности погоды. При расчете учитывается влияние влажности воздуха и скорости ветра на теплоощущения человека.
Tes - Эффективная температура на солнце - температура, которую ощущает человек, с поправкой на солнечный нагрев. Характеристика знойности погоды. Зависит от высоты солнца над горизонтом, облачности и скорости ветра. Ночью, в пасмурную погоду, а также при ветре 12 м/с и более поправка равна нулю.
P - Атмосферное давление - приведенное к уровню моря атмосферное давление.
Po - Атмосферное давление - измеренное на уровне метеостанции атмосферное давление.
Tmin - Минимальная температура - минимум температуры воздуха на высоте 2 м над землей.
Tmax - Максимальная температура - максимум температуры воздуха на высоте 2 м над землей.
R - Количество осадков - Количество выпавших осадков за период времени, мм. При наведении курсора мыши на число - период времени, за который выпало указанное количество осадков.
R24 - Количество осадков - Количество выпавших осадков за 24 часа, мм.
S - Снежный покров - Высота снежного покрова, см. При наведении курсора мыши на число - состояние снежного покрова и степень покрытия местности в баллах.